Regional Weather Roundup
Issued by NWS

Home | Current Version | Previous Version | Text Only | Print | Product List | Glossary Off
Versions: 1 2 3 4 5 6 7 8 9 10 11 12 13 14 15 16 17 18 19 20 21 22 23 24 25 26 27 28 29 30 31 32 33 34 35 36 37 38 39 40 41 42 43 44 45 46 47 48 49 50

000
ASUS43 KBIS 250602
RWRND

NORTH DAKOTA REGIONAL WEATHER ROUNDUP
NATIONAL WEATHER SERVICE BISMARCK ND
100 AM CDT SUN SEP 25 2016

NOTE: "FAIR" INDICATES FEW OR NO CLOUDS BELOW 12,000 FEET WITH NO
SIGNIFICANT WEATHER AND/OR OBSTRUCTIONS TO VISIBILITY.


NDZ001>003-009>011-017-250700-
NORTHWEST NORTH DAKOTA

CITY           SKY/WX    TMP DP  RH WIND       PRES   REMARKS
WILLISTON      RAIN      51  47  86 NW22G31   29.94R FOG
6HR MIN TEMP:  51; 6HR MAX TEMP:  55; 6HR PCP:  0.13;

MINOT          CLOUDY    56  53  90 NW20      29.75S
MINOT AFB      CLOUDY    55  52  88 NW22G29   29.75R
$$

NDZ018>021-031>035-040>046-250700-
SOUTHWEST NORTH DAKOTA

CITY           SKY/WX    TMP DP  RH WIND       PRES   REMARKS
BISMARCK       MOCLDY    53  48  83 SW9       29.77R
6HR MIN TEMP:  53; 6HR MAX TEMP:  72;

DICKINSON      LGT RAIN  48  46  93 NW29G36   29.88R FOG
GARRISON         N/A     55  55 100 N16       29.75R
6HR MIN TEMP:  52; 6HR MAX TEMP:  70;

HETTINGER ARPT RAIN      48  46  93 NW33G45   29.91R FOG
$$

NDZ004>008-012>016-024-026-027-054-250700-
NORTHEAST NORTH DAKOTA

CITY           SKY/WX    TMP DP  RH WIND       PRES   REMARKS
GRAND FORKS    MOCLDY    69  66  90 S14       29.73S
GRND FRKS AFB  PTCLDY    67  66  97 S10       29.73S
DEVILS LAKE    CLEAR     61  54  77 SW8       29.71F
$$

NDZ022-023-025-028>030-036>039-047>053-250700-
SOUTHEAST NORTH DAKOTA

CITY           SKY/WX    TMP DP  RH WIND       PRES   REMARKS
FARGO          MOCLDY    68  65  90 S12       29.78S
6HR MIN TEMP:  68; 6HR MAX TEMP:  72; 6HR PCP:  0.17;

JAMESTOWN      CLEAR     57  50  77 SW10      29.76R
$$




USA.gov is the U.S. government's official web portal to all federal, state and local government web resources and services.